Location: Fort Wayne
(41.1310°N, 85.1290°W)
Time: 18:59:11
(UTC-05:00)

Cosmos 1000 Rocket - Visible Passes

Search period start: 05 March 2015 00:00
Search period end: 15 March 2015 01:00
Orbit: 954 x 993 km, 82.9° (Epoch: 04 March)

Date Brightness Start Highest point End Pass type
(mag) Time Alt. Az. Time Alt. Az. Time Alt. Az.
09 Mar 7.3 00:37:31 10° NNW 00:37:31 10° NNW 00:37:34 10° NNW visible
09 Mar 6.9 23:17:06 12° NNE 23:17:06 12° NNE 23:17:27 10° NNE visible
10 Mar 6.8 23:41:13 15° N 23:41:13 15° N 23:42:13 10° N visible
11 Mar 6.7 22:20:44 11° NNE 22:20:44 11° NNE 22:21:04 10° NNE visible
12 Mar 6.8 00:05:18 16° NNW 00:05:18 16° NNW 00:06:39 10° N visible
12 Mar 6.3 22:44:45 18° NNE 22:44:45 18° NNE 22:46:18 10° NNE visible
13 Mar 7.0 00:29:20 15° NNW 00:29:20 15° NNW 00:30:40 10° NNW visible
13 Mar 6.1 23:08:44 25° N 23:08:44 25° N 23:11:09 10° N visible
14 Mar 7.2 00:53:17 10° NW 00:53:17 10° NW 00:53:30 10° NW visible
14 Mar 6.2 21:48:03 17° NE 21:48:03 17° NE 21:49:43 10° NNE visible
14 Mar 6.1 23:32:37 28° NNW 23:32:37 28° NNW 23:35:42 10° N visible
